Location: Unspecified
(54.1780°N, 0.0000°E)
Time: 06:54:22
(UTC+00:00)

Explorer 7 - Pass Details

Date: 18 June 2019
Orbit: 485 x 680 km, 50.3° (Epoch: 16 July)

Event Time Altitude Azimuth Distance (km) Brightness Sun altitude
Rises 13:20:15 0° 264° (W) 2,927 10.8 55.8°
Reaches altitude 10° 13:22:34 10° 260° (W) 2,045 10.2 55.7°
Maximum altitude 13:27:11 54° 183° (S) 806 9.4 55.3°
Drops below altitude 10° 13:31:58 10° 107° (ESE) 2,112 9.8 54.8°
Sets 13:34:23 0° 103° (ESE) 3,033 10.4 54.6°
